User: anonymous   Login
Location: Kielce
(50.8833°N, 20.6167°E)
Time: 13:36:32
(UTC+02:00)
Language:

Tiros 1 - Orbit

View from above orbital plane
View from above orbital plane
View from above satellite
View from above satellite

Ground track
Ground track

The orbit data is extracted from the following two-line orbital elements,

1 00029U 60002B   21107.89022389 -.00000077  00000-0  19636-4 0  9995
2 00029  48.3799 311.8243 0023632  95.1127 265.2483 14.74420263263460
Epoch (UTC): 17 April 2021 21:21:55
Eccentricity: 0.0023632
inclination: 48.3799°
perigee height: 630 km
apogee height: 663 km
right ascension of ascending node: 311.8243°
argument of perigee: 95.1127°
revolutions per day: 14.74420263
mean anomaly at epoch: 265.2483°
orbit number at epoch: 26346

The dashed part of the orbit path shows where the satellite is in the earth's shadow,  

DLR